This demonstration page uses our WeatherBlox Daily Observations layout. Learn more.

39.92423, -83.80882

Hourly Observations for June 13, 2016

Temp ( °F °C ) Dew Point ( °F °C ) Humidity (%) Winds ( mph kmh ) Pressure ( in mb ) Visibility ( mi km ) Precip ( " mm )
12:56 am 00:56 Clear 58 14.4 47 8.3 67 67 NE 8 13 30.05 1018 10 16.0934 0 0
1:56 am 01:56 Clear 61 16.1 48 8.8 62 62 Calm 30.05 1018 10 16.0934 0 0
2:56 am 02:56 Clear 57 13.8 48 8.8 72 72 ENE 5 7 30.06 1018 10 16.0934 0 0
3:56 am 03:56 Clear 56 13.3 46 7.7 69 69 Calm 30.06 1018 10 16.0934 0 0
4:56 am 04:56 Clear 51 10.5 45 7.2 80 80 ENE 6 9 30.08 1019 10 16.0934 0 0
5:56 am 05:56 Clear 51 10.5 46 7.7 83 83 ENE 6 9 30.09 1019 10 16.0934 0 0
6:56 am 06:56 Sunny 53 11.6 47 8.3 80 80 E 6 9 30.08 1019 10 16.0934 0 0
7:56 am 07:56 Sunny 60 15.5 47 8.3 62 62 SSE 6 9 30.1 1019 10 16.0934 0 0
8:56 am 08:56 Sunny 64 17.7 47 8.3 54 54 ESE 8 13 30.12 1020 10 16.0934 0 0
9:56 am 09:56 Sunny 68 20 47 8.3 47 47 ESE 7 11 30.12 1020 10 16.0934 0 0
10:56 am 10:56 Sunny 71 21.6 48 8.8 44 44 ESE 6 9 30.1 1019 10 16.0934 0 0
11:56 am 11:56 Sunny 73 22.7 47 8.3 40 40 VRB 6 9 30.07 1018 10 16.0934 0 0
12:56 pm 12:56 Mostly Sunny 75 23.8 47 8.3 37 37 VRB 3 6 30.06 1018 10 16.0934 0 0
1:56 pm 13:56 Sunny 77 25 44 6.6 31 31 SW 5 7 30.04 1017 10 16.0934 0 0
2:56 pm 14:56 Sunny 78 25.5 45 7.2 31 31 Calm 30.02 1017 10 16.0934 0 0
3:56 pm 15:56 Sunny 82 27.7 47 8.3 29 29 E 5 7 30 1016 10 16.0934 0 0
4:56 pm 16:56 Sunny 83 28.3 47 8.3 28 28 NNW 5 7 29.99 1016 10 16.0934 0 0
5:56 pm 17:56 Sunny 83 28.3 46 7.7 27 27 Calm 29.97 1015 10 16.0934 0 0
6:56 pm 18:56 Sunny 83 28.3 43 6.1 24 24 NW 3 6 29.96 1015 10 16.0934 0 0
7:56 pm 19:56 Sunny 82 27.7 44 6.6 26 26 Calm 29.96 1014 10 16.0934 0 0
8:56 pm 20:56 Sunny 77 25 51 10.5 40 40 Calm 29.93 1014 10 16.0934 0 0
9:56 pm 21:56 Clear 69 20.5 55 12.7 61 61 E 3 6 29.94 1014 10 16.0934 0 0
10:56 pm 22:56 Clear 68 20 56 13.3 65 65 Calm 29.94 1014 10 16.0934 0 0
11:56 pm 23:56 Clear 66 18.8 58 14.4 76 76 E 3 6 29.94 1014 10 16.0934 0 0

Powered by AerisWeather